Weather History for Sydney Airport, New South Wales

Change the Weather History Date:

Wednesday, April 23, 2014

  Actual Average Record
Temperature  
Mean Temperature 66 °F -  
Max Temperature 75 °F 69 °F - ()
Min Temperature 56 °F 52 °F - ()
Growing Degree Days 16 (Base 50)    
Moisture  
Dew Point 50 °F    
Average Humidity 53    
Maximum Humidity 72    
Minimum Humidity 26    
Precipitation  
Precipitation 0.00 in 0.13 in - ()
Sea Level Pressure  
Sea Level Pressure 30.00 in    
Wind  
Wind Speed 7 mph ()    
Max Wind Speed 10 mph    
Max Gust Speed -    
Visibility 17.7 miles    
Events      
T = Trace of Precipitation, MM = Missing Value Source: Averaged Metar Reports

Daily Weather History Graph

Daily Weather History Graph

Search for Another Location

Airport:

Trip Planner

Search our weather history database for the weather conditions in past years. The results will help you decide how hot, cold, wet, or windy it might be!

Date:

Astronomy

Apr. 23, 2014 Rise Set
Actual Time 6:23 AM EST 5:23 PM EST
Civil Twilight 5:58 AM EST 5:48 PM EST
Nautical Twilight 5:28 AM EST 6:18 PM EST
Astronomical Twilight 4:59 AM EST 6:47 PM EST
Moon No Moon Rise 1:20 PM EST (4/23)
Length of Visible Light 11h 50m
Length of Day
10h 59m
Last Quarter, 41% of the Moon is Illuminated
Apr 23
Last Quarter
Apr 29
New
May 7
First Quarter
May 15
Full
May 21
Last Quarter

Hourly Weather History & Observations

Time (EST) Temp. Dew Point Humidity Pressure Visibility Wind Dir Wind Speed Gust Speed Precip Events Conditions
12:00 AM 63 °F 50 °F 52% 30.02 in 19 mi West 8.1 mph - -   Partly Cloudy
12:00 AM 62.6 °F 50.0 °F 63% 30.01 in - West 8.1 mph - N/A   Clear
12:30 AM 60.8 °F 50.0 °F 68% 30.01 in - WNW 8.1 mph - N/A   Clear
1:00 AM 60 °F 49 °F 58% 30.02 in - NW 6.9 mph - -  
1:00 AM 60.8 °F 50.0 °F 68% 30.01 in - NW 6.9 mph - N/A   Clear
1:30 AM 60.8 °F 48.2 °F 63% 30.01 in - NNW 6.9 mph - N/A   Clear
2:00 AM 59 °F 48 °F 59% 30.02 in - NNW 6.9 mph - -  
2:00 AM 59.0 °F 48.2 °F 67% 30.01 in - NNW 6.9 mph - N/A   Clear
2:30 AM 59.0 °F 46.4 °F 63% 30.01 in - NNW 6.9 mph - N/A   Clear
3:00 AM 58 °F 47 °F 57% 30.01 in 19 mi NNW 9.2 mph - -   Partly Cloudy
3:00 AM 57.2 °F 46.4 °F 67% 30.01 in - NNW 9.2 mph - N/A   Clear
3:30 AM 57.2 °F 46.4 °F 67% 30.01 in - NNW 9.2 mph - N/A   Clear
4:00 AM 58 °F 46 °F 56% 30.01 in - NNW 8.1 mph - -  
4:00 AM 57.2 °F 46.4 °F 67% 30.01 in - NNW 8.1 mph - N/A   Clear
4:30 AM 57.2 °F 44.6 °F 63% 30.01 in - NW 8.1 mph - N/A   Clear
5:00 AM 57 °F 47 °F 59% 30.02 in - NNW 8.1 mph - -  
5:00 AM 57.2 °F 46.4 °F 67% 30.01 in - NNW 8.1 mph - N/A   Clear
5:30 AM 57.2 °F 46.4 °F 67% 30.01 in - NNW 9.2 mph - N/A   Clear
6:00 AM 57 °F 47 °F 60% 30.03 in 19 mi NW 8.1 mph - -   Partly Cloudy
6:30 AM 57.2 °F 48.2 °F 72% 30.04 in - NW 9.2 mph - N/A   Clear
7:00 AM 59 °F 48 °F 57% 30.04 in - NNW 9.2 mph - -  
7:00 AM 59.0 °F 48.2 °F 67% 30.04 in - NNW 9.2 mph - N/A   Clear
7:30 AM 60.8 °F 46.4 °F 59% 30.04 in - NNW 9.2 mph - N/A   Clear
8:00 AM 63 °F 46 °F 44% 30.05 in - NW 9.2 mph - -  
8:00 AM 62.6 °F 46.4 °F 55% 30.04 in - NW 9.2 mph - N/A   Clear
8:30 AM 64.4 °F 44.6 °F 49% 30.04 in - NW 10.4 mph - N/A   Clear
9:00 AM 66 °F 45 °F 35% 30.05 in 16 mi NW 9.2 mph - -   Partly Cloudy
9:00 AM 66.2 °F 44.6 °F 46% 30.04 in - NW 9.2 mph - N/A   Clear
9:30 AM 68.0 °F 44.6 °F 43% 30.04 in - NW 8.1 mph - N/A   Clear
10:00 AM 70 °F 44 °F 27% 30.04 in - NW 10.4 mph - -  
10:00 AM 69.8 °F 44.6 °F 40% 30.04 in - NW 10.4 mph - N/A   Clear
10:30 AM 73.4 °F 44.6 °F 36% 30.04 in - WNW 10.4 mph - N/A   Clear
11:00 AM 73 °F 45 °F 26% 30.03 in - West 8.1 mph - -  
11:00 AM 73.4 °F 44.6 °F 36% 30.01 in - West 8.1 mph - N/A   Clear
11:30 AM 75.2 °F 48.2 °F 38% 30.01 in - WSW 5.8 mph - N/A   Clear
12:00 PM 72 °F 50 °F 34% 30.01 in 16 mi ESE 1.2 mph - -   Partly Cloudy
12:00 PM 71.6 °F 50.0 °F 46% 30.01 in - ESE 1.2 mph - N/A   Clear
12:30 PM 71.6 °F 48.2 °F 43% 29.98 in - ESE 4.6 mph - N/A   Clear
1:00 PM 72 °F 56 °F 47% 29.99 in - SSE 6.9 mph - -  
1:00 PM 71.6 °F 55.4 °F 57% 29.98 in - SSE 6.9 mph - N/A   Clear
1:30 PM 75.2 °F 44.6 °F 34% 29.98 in - SSE 6.9 mph - N/A   Clear
2:00 PM 74 °F 48 °F 29% 29.97 in - SSE 8.1 mph - -  
2:00 PM 73.4 °F 48.2 °F 41% 29.95 in - SSE 8.1 mph - N/A   Clear
2:30 PM 75.2 °F 46.4 °F 36% 29.95 in - ESE 8.1 mph - N/A   Clear
3:00 PM 74 °F 52 °F 35% 29.97 in 16 mi SE 6.9 mph - -   Partly Cloudy
3:00 PM 73.4 °F 51.8 °F 47% 29.95 in - SE 6.9 mph - N/A   Clear
3:30 PM 75.2 °F 51.8 °F 44% 29.95 in - SE 8.1 mph - N/A   Clear
4:00 PM 74 °F 49 °F 30% 29.97 in - East 10.4 mph - -  
4:00 PM 73.4 °F 50.0 °F 44% 29.95 in - East 10.4 mph - N/A   Clear
4:30 PM 71.6 °F 48.2 °F 43% 29.95 in - ENE 9.2 mph - N/A   Clear
5:00 PM 71 °F 51 °F 37% 29.97 in - ENE 8.1 mph - -  
5:00 PM 71.6 °F 50.0 °F 46% 29.95 in - ENE 8.1 mph - N/A   Clear
5:30 PM 71.6 °F 53.6 °F 53% 29.95 in - NE 9.2 mph - N/A   Clear
6:00 PM 70 °F 54 °F 47% 29.97 in 25 mi NNE 8.1 mph - -   Partly Cloudy
6:00 PM 69.8 °F 53.6 °F 56% 29.95 in - NNE 8.1 mph - N/A   Clear
6:30 PM 71.6 °F 55.4 °F 57% 29.98 in - North 5.8 mph - N/A   Clear
7:00 PM 71 °F 55 °F 46% 29.99 in - NNE 4.6 mph - -  
7:00 PM 69.8 °F 55.4 °F 60% 29.98 in - NNE 4.6 mph - N/A   Clear
7:30 PM 71.6 °F 55.4 °F 57% 29.98 in - North 4.6 mph - N/A   Clear
8:00 PM 67 °F 55 °F 55% 30.00 in - North 2.3 mph - -  
8:00 PM 68.0 °F 55.4 °F 64% 29.98 in - North 2.3 mph - N/A   Clear
8:30 PM 68.0 °F 55.4 °F 64% 29.98 in - NW 1.2 mph - N/A   Clear
9:00 PM 67 °F 55 °F 57% 29.99 in 19 mi NNE 1.2 mph - -   Partly Cloudy
9:00 PM 68.0 °F 55.4 °F 64% 29.98 in - NNE 1.2 mph - N/A   Clear
9:30 PM 66.2 °F 55.4 °F 68% 29.98 in - North 3.5 mph - N/A   Clear
10:00 PM 66 °F 55 °F 60% 29.98 in - North 4.6 mph - -  
10:00 PM 66.2 °F 55.4 °F 68% 29.98 in - North 4.6 mph - N/A   Clear
10:30 PM 66.2 °F 55.4 °F 68% 29.98 in - NNW 5.8 mph - N/A   Clear
11:00 PM 66 °F 53 °F 54% 29.97 in - NNW 8.1 mph - -  
11:00 PM 66.2 °F 53.6 °F 64% 29.95 in - NNW 8.1 mph - N/A   Clear
11:30 PM 64.4 °F 53.6 °F 68% 29.95 in - WNW 9.2 mph - N/A   Clear